Termez, Uzbekistan

11:34 AM +05 on September 25, 2017 (GMT +0500)
Termez

Weather History for UTST - November, 2012

Change the Weather History Date:

Thursday, November 22, 2012

  Actual Average Record
Temperature  
Mean Temperature 42 °F -  
Max Temperature 48 °F - - ()
Min Temperature 36 °F - - ()
Degree Days  
Heating Degree Days 23    
Moisture  
Dew Point 28 °F    
Average Humidity 58    
Maximum Humidity 81    
Minimum Humidity 36    
Precipitation  
Precipitation 0.00 in 0.02 in - ()
Sea Level Pressure  
Sea Level Pressure 30.27 in    
Wind  
Wind Speed 3 mph ()    
Max Wind Speed 4 mph    
Max Gust Speed -    
Visibility 6.0 miles    
Events      
T = Trace of Precipitation, MM = Missing Value Source: Averaged Metar Reports

Daily Weather History Graph

Daily Weather History Graph

Search for Another Location

Airport or City:

Trip Planner

Search our weather history database for the weather conditions in past years. The results will help you decide how hot, cold, wet, or windy it might be!

Date:

Astronomy

Nov. 22, 2012 Rise Set
Actual Time 7:17 AM +05 5:16 PM +05
Civil Twilight 6:49 AM +05 5:44 PM +05
Nautical Twilight 6:17 AM +05 6:16 PM +05
Astronomical Twilight 5:46 AM +05 6:47 PM +05
Moon 1:43 PM +05 (11/22) 1:18 AM +05 (11/22)
Length of Visible Light 10h 55m
Length of Day
9h 59m
Waxing Gibbous, 67% of the Moon is Illuminated
Nov 22
Waxing Gibbous
Nov 28
Full
Dec 6
Last Quarter
Dec 13
New
Dec 20
First Quarter

Hourly Weather History & Observations

Time (+05) Temp. Windchill Dew Point Humidity Pressure Visibility Wind Dir Wind Speed Gust Speed Precip Events Conditions
12:00 AM 41.0 °F - 28.4 °F 61% 30.27 in - Variable 2.2 mph - N/A   Clear
12:30 AM 41.0 °F - 30.2 °F 65% 30.27 in - Calm Calm - N/A   Clear
1:00 AM 37.4 °F - 32.0 °F 81% 30.27 in - ESE 2.2 mph - N/A   Clear
2:00 AM 39.2 °F - 30.2 °F 70% 30.27 in - SSE 2.2 mph - N/A   Clear
2:30 AM 39.2 °F - 28.4 °F 65% 30.27 in - SSW 2.2 mph - N/A   Clear
3:00 AM 39.2 °F - 28.4 °F 65% 30.27 in 6.2 mi SSW 2.2 mph - N/A   Scattered Clouds
3:30 AM 37.4 °F 33.9 °F 26.6 °F 65% 30.27 in 6.2 mi SSW 4.5 mph - N/A   Scattered Clouds
4:00 AM 37.4 °F - 28.4 °F 70% 30.27 in 6.2 mi SW 2.2 mph - N/A   Scattered Clouds
4:30 AM 37.4 °F - 28.4 °F 70% 30.27 in 6.2 mi SW 2.2 mph - N/A   Scattered Clouds
5:00 AM 38 °F - 27 °F 52% 30.32 in 6 mi SSW 4.5 mph - -   Mostly Cloudy
5:00 AM 39.2 °F 36.0 °F 26.6 °F 61% 30.27 in 6.2 mi SSW 4.5 mph - N/A   Mostly Cloudy
5:30 AM 37.4 °F - 24.8 °F 60% 30.27 in 6.2 mi SW 2.2 mph - N/A   Mostly Cloudy
6:00 AM 37.4 °F - 24.8 °F 60% 30.27 in 6.2 mi South 2.2 mph - N/A   Mostly Cloudy
6:30 AM 37.4 °F 33.9 °F 26.6 °F 65% 30.27 in 6.2 mi South 4.5 mph - N/A   Mostly Cloudy
7:00 AM 37.4 °F - 26.6 °F 65% 30.27 in 6.2 mi Variable 2.2 mph - N/A   Mostly Cloudy
7:30 AM 37.4 °F - 24.8 °F 60% 30.30 in 6.2 mi SW 2.2 mph - N/A   Mostly Cloudy
8:00 AM 37.4 °F - 26.6 °F 65% 30.30 in 6.2 mi Calm Calm - N/A   Mostly Cloudy
8:30 AM 37.4 °F - 26.6 °F 65% 30.30 in 6.2 mi Calm Calm - N/A   Mostly Cloudy
9:00 AM 39.2 °F 36.0 °F 26.6 °F 61% 30.30 in 6.2 mi SSE 4.5 mph - N/A   Mostly Cloudy
9:30 AM 39.2 °F 36.0 °F 26.6 °F 61% 30.30 in 6.2 mi SE 4.5 mph - N/A   Mostly Cloudy
10:00 AM 39.2 °F 36.0 °F 28.4 °F 65% 30.30 in 6.2 mi ESE 4.5 mph - N/A   Overcast
10:30 AM 41.0 °F 38.1 °F 28.4 °F 61% 30.30 in 6.2 mi SE 4.5 mph - N/A   Overcast
11:00 AM 41 °F - 29 °F 52% 30.34 in 6 mi ESE 2.2 mph - -   Overcast
11:00 AM 41.0 °F - 28.4 °F 61% 30.30 in 6.2 mi Variable 2.2 mph - N/A   Overcast
11:30 AM 42.8 °F - 28.4 °F 57% 30.27 in 6.2 mi Variable 2.2 mph - N/A   Overcast
12:00 PM 44.6 °F - 28.4 °F 53% 30.27 in 6.2 mi Variable 2.2 mph - N/A   Overcast
12:30 PM 44.6 °F - 28.4 °F 53% 30.27 in 6.2 mi Variable 2.2 mph - N/A   Overcast
1:00 PM 46.4 °F - 28.4 °F 50% 30.24 in 6.2 mi Variable 2.2 mph - N/A   Mostly Cloudy
1:30 PM 46.4 °F - 28.4 °F 50% 30.24 in 6.2 mi Variable 2.2 mph - N/A   Mostly Cloudy
2:00 PM 48.2 °F - 28.4 °F 46% 30.24 in 6.2 mi SSW 4.5 mph - N/A   Mostly Cloudy
2:30 PM 48.2 °F - 28.4 °F 46% 30.24 in 6.2 mi SW 4.5 mph - N/A   Mostly Cloudy
3:00 PM 46.4 °F 44.4 °F 28.4 °F 50% 30.24 in 6.2 mi WSW 4.5 mph - N/A   Mostly Cloudy
3:30 PM 46.4 °F 44.4 °F 28.4 °F 50% 30.24 in 6.2 mi SW 4.5 mph - N/A   Mostly Cloudy
4:00 PM 46.4 °F 44.4 °F 26.6 °F 46% 30.24 in 6.2 mi SW 4.5 mph - N/A   Mostly Cloudy
4:30 PM 46.4 °F 44.4 °F 26.6 °F 46% 30.24 in 6.2 mi SW 4.5 mph - N/A   Mostly Cloudy
5:00 PM 46 °F - 28 °F 36% 30.27 in 6 mi SW 2.2 mph - -   Mostly Cloudy
5:00 PM 46.4 °F - 28.4 °F 50% 30.24 in 6.2 mi SW 2.2 mph - N/A   Mostly Cloudy
5:30 PM 44.6 °F - 28.4 °F 53% 30.24 in 6.2 mi SSW 2.2 mph - N/A   Mostly Cloudy
6:00 PM 44.6 °F - 30.2 °F 57% 30.24 in 4.3 mi SSE 2.2 mph - N/A   Mostly Cloudy
6:30 PM 42.8 °F - 32.0 °F 66% 30.24 in 3.7 mi SE 2.2 mph - N/A   Mostly Cloudy
7:00 PM 42.8 °F - 32.0 °F 66% 30.27 in 4.3 mi SE 2.2 mph - N/A   Mostly Cloudy
7:30 PM 44.6 °F 42.3 °F 32.0 °F 61% 30.27 in 5.6 mi SE 4.5 mph - N/A   Mostly Cloudy
8:00 PM 44.6 °F 42.3 °F 32.0 °F 61% 30.27 in 6.2 mi SSE 4.5 mph - N/A   Mostly Cloudy
8:30 PM 44.6 °F 42.3 °F 32.0 °F 61% 30.27 in 6.2 mi SSW 4.5 mph - N/A   Mostly Cloudy
9:00 PM 44.6 °F 42.3 °F 30.2 °F 57% 30.27 in 6.2 mi SW 4.5 mph - N/A   Mostly Cloudy
9:30 PM 42.8 °F 40.2 °F 28.4 °F 57% 30.27 in 6.2 mi SW 4.5 mph - N/A   Mostly Cloudy
10:00 PM 42.8 °F 40.2 °F 28.4 °F 57% 30.27 in 6.2 mi SW 4.5 mph - N/A   Mostly Cloudy
10:30 PM 44.6 °F 42.3 °F 26.6 °F 49% 30.27 in 6.2 mi SW 4.5 mph - N/A   Mostly Cloudy
11:00 PM 44 °F - 27 °F 39% 30.32 in 6 mi SW 4.5 mph - -   Mostly Cloudy
11:00 PM 42.8 °F 40.2 °F 26.6 °F 53% 30.27 in 6.2 mi SW 4.5 mph - N/A   Mostly Cloudy
11:30 PM 42.8 °F 40.2 °F 24.8 °F 49% 30.27 in 6.2 mi SW 4.5 mph - N/A   Mostly Cloudy